User: anonymous   Login
Location: Unspecified
(0.0000°N, 0.0000°E)
Time: 19:37:55
(UTC+00:00)
Language:

SICRAL 2 - Orbit

View from above orbital plane
View from above orbital plane
View from above satellite
View from above satellite

Ground track
Ground track

The orbit data is extracted from the following two-line orbital elements,

1 40614U 15022B   21127.41861710 0.00000000  00000-0  00000-0 0    09
2 40614   0.0240  53.2032 0003453 263.2812  96.7188  1.00270000    06
Epoch (UTC): 07 May 2021 10:02:48
Eccentricity: 0.0003453
inclination: 0.0240°
perigee height: 35772 km
apogee height: 35801 km
right ascension of ascending node: 53.2032°
argument of perigee: 263.2812°
revolutions per day: 1.00270000
mean anomaly at epoch: 96.7188°
orbit number at epoch: 0

The dashed part of the orbit path shows where the satellite is in the earth's shadow,  

DLR